WGS F2 (USA 204)

Last updated on Mon Oct 14 2024 00:02:38 GMT+0000 (Coordinated Universal Time)

1 34713U 09017A 24287.17132910 .00000067 00000+0 00000+0 0 9993 2 34713 0.0159 198.2628 0000981 96.5185 206.6102 1.00270378 39482
UTC large
Height (km)
Speed (km/s)
/
Latitude / Longitude
Inclination (degrees)
Orbital Period (minutes)
Azimuth
Elevation
Range (km)
Doppler Factor

Next 0 passes for location: London (51.5072 / 0.1276)

Sorry there are no passes over London.